Time,TemperatureF,DewpointF,PressureIn,WindDirection,WindDirectionDegrees,WindSpeedMPH,WindSpeedGustMPH,Humidity,HourlyPrecipIn,Conditions,Clouds,dailyrainin,SoftwareType,DateUTC
2013-02-05 00:00:00,39.8,25.0,30.00,SSW,213,0.0,1.0,55,0.00,CLR,,0.00,WeatherDisplay:10.37,2013-02-05 05:00:00,
2013-02-05 00:10:00,39.9,25.0,29.99,SSW,211,0.0,2.0,55,0.00,CLR,,0.00,WeatherDisplay:10.37,2013-02-05 05:10:00,
2013-02-05 00:20:00,39.9,25.0,29.99,SSW,211,0.0,1.0,55,0.00,CLR,,0.00,WeatherDisplay:10.37,2013-02-05 05:20:00,
2013-02-05 00:30:00,39.8,25.4,29.99,SSW,213,0.0,1.0,56,0.00,CLR,,0.00,WeatherDisplay:10.37,2013-02-05 05:30:00,
2013-02-05 00:40:00,39.8,25.4,29.98,SSW,213,0.0,1.0,56,0.00,CLR,,0.00,WeatherDisplay:10.37,2013-02-05 05:40:00,
2013-02-05 00:50:00,39.8,25.4,29.97,SSW,213,0.0,0.0,56,0.00,CLR,,0.00,WeatherDisplay:10.37,2013-02-05 05:50:00,
2013-02-05 01:00:00,39.8,25.4,29.97,SSW,213,0.0,0.0,56,0.00,CLR,,0.00,WeatherDisplay:10.37,2013-02-05 06:00:00,
2013-02-05 01:10:00,39.8,25.4,29.97,SSW,213,0.0,0.0,56,0.00,CLR,,0.00,WeatherDisplay:10.37,2013-02-05 06:10:00,
2013-02-05 01:20:00,39.6,25.6,29.95,SSW,213,0.0,0.0,57,0.00,CLR,,0.00,WeatherDisplay:10.37,2013-02-05 06:20:00,
2013-02-05 01:30:00,39.6,25.6,29.95,SSW,213,0.0,0.0,57,0.00,CLR,,0.00,WeatherDisplay:10.37,2013-02-05 06:30:00,
2013-02-05 01:40:00,39.5,25.9,29.95,SSW,213,0.0,0.0,58,0.00,CLR,,0.00,WeatherDisplay:10.37,2013-02-05 06:40:00,
2013-02-05 01:50:00,39.3,25.7,29.95,SSW,213,0.0,0.0,58,0.00,CLR,,0.00,WeatherDisplay:10.37,2013-02-05 06:50:00,
2013-02-05 02:00:00,39.3,25.7,29.95,SSW,213,0.0,0.0,58,0.00,CLR,,0.00,WeatherDisplay:10.37,2013-02-05 07:00:00,
2013-02-05 02:10:00,39.2,25.6,29.95,SSW,213,0.0,0.0,58,0.00,CLR,,0.00,WeatherDisplay:10.37,2013-02-05 07:10:00,
2013-02-05 02:20:00,39.2,26.1,29.95,SSW,213,0.0,0.0,59,0.00,CLR,,0.00,WeatherDisplay:10.37,2013-02-05 07:20:00,
2013-02-05 02:30:00,39.1,26.0,29.95,SSW,213,0.0,0.0,59,0.00,CLR,,0.00,WeatherDisplay:10.37,2013-02-05 07:30:00,
2013-02-05 02:40:00,38.9,25.8,29.95,SSW,213,0.0,0.0,59,0.00,CLR,,0.00,WeatherDisplay:10.37,2013-02-05 07:40:00,
2013-02-05 02:50:00,38.9,25.8,29.94,SSW,213,0.0,0.0,59,0.00,CLR,,0.00,WeatherDisplay:10.37,2013-02-05 07:50:00,
2013-02-05 03:00:00,38.8,26.1,29.94,SSW,213,0.0,0.0,60,0.00,CLR,,0.00,WeatherDisplay:10.37,2013-02-05 08:00:00,
2013-02-05 03:10:00,38.6,25.9,29.94,SSW,213,0.0,0.0,60,0.00,CLR,,0.00,WeatherDisplay:10.37,2013-02-05 08:10:00,
2013-02-05 03:20:00,38.6,26.3,29.94,SSW,213,0.0,0.0,61,0.00,CLR,,0.00,WeatherDisplay:10.37,2013-02-05 08:20:00,
2013-02-05 03:30:00,38.6,26.3,29.94,SSW,213,0.0,0.0,61,0.00,CLR,,0.00,WeatherDisplay:10.37,2013-02-05 08:30:00,
2013-02-05 03:40:00,38.6,26.3,29.94,SSW,213,0.0,0.0,61,0.00,CLR,,0.00,WeatherDisplay:10.37,2013-02-05 08:40:00,
2013-02-05 03:50:00,38.6,26.3,29.92,SSW,213,0.0,1.0,61,0.00,CLR,,0.00,WeatherDisplay:10.37,2013-02-05 08:50:00,
2013-02-05 04:00:00,38.6,26.3,29.92,SSW,213,0.0,1.0,61,0.00,CLR,,0.00,WeatherDisplay:10.37,2013-02-05 09:00:00,
2013-02-05 04:10:00,38.6,26.3,29.92,SSW,213,0.0,1.0,61,0.00,CLR,,0.00,WeatherDisplay:10.37,2013-02-05 09:10:00,
2013-02-05 04:20:00,38.8,26.5,29.92,SW,214,0.0,1.0,61,0.00,CLR,,0.00,WeatherDisplay:10.37,2013-02-05 09:20:00,
2013-02-05 04:30:00,38.8,26.5,29.92,SW,216,0.0,1.0,61,0.00,CLR,,0.00,WeatherDisplay:10.37,2013-02-05 09:30:00,
2013-02-05 04:40:00,38.6,26.7,29.92,SW,216,0.0,0.0,62,0.00,CLR,,0.00,WeatherDisplay:10.37,2013-02-05 09:40:00,
2013-02-05 04:50:00,38.6,26.7,29.92,SW,217,0.0,0.0,62,0.00,CLR,,0.00,WeatherDisplay:10.37,2013-02-05 09:50:00,
2013-02-05 05:00:00,38.5,26.6,29.92,SW,217,0.0,1.0,62,0.00,CLR,,0.00,WeatherDisplay:10.37,2013-02-05 10:00:00,
2013-02-05 05:10:00,38.5,27.0,29.93,SW,217,0.0,0.0,63,0.00,CLR,,0.00,WeatherDisplay:10.37,2013-02-05 10:10:00,
2013-02-05 05:20:00,38.5,27.0,29.93,SW,217,0.0,0.0,63,0.00,CLR,,0.00,WeatherDisplay:10.37,2013-02-05 10:20:00,
2013-02-05 05:30:00,38.3,26.8,29.93,SW,217,0.0,0.0,63,0.00,CLR,,0.00,WeatherDisplay:10.37,2013-02-05 10:30:00,
2013-02-05 05:40:00,38.3,27.2,29.94,SW,217,0.0,0.0,64,0.00,CLR,,0.00,WeatherDisplay:10.37,2013-02-05 10:40:00,
2013-02-05 05:50:00,38.3,27.2,29.94,SW,217,0.0,0.0,64,0.00,CLR,,0.00,WeatherDisplay:10.37,2013-02-05 10:50:00,
2013-02-05 06:00:00,38.3,27.2,29.94,SW,217,0.0,0.0,64,0.00,CLR,,0.00,WeatherDisplay:10.37,2013-02-05 11:00:00,
2013-02-05 06:10:00,38.6,27.5,29.94,SW,217,0.0,0.0,64,0.00,CLR,,0.00,WeatherDisplay:10.37,2013-02-05 11:10:00,
2013-02-05 06:20:00,38.8,27.3,29.94,SW,217,0.0,0.0,63,0.00,CLR,,0.00,WeatherDisplay:10.37,2013-02-05 11:20:00,
2013-02-05 06:30:00,38.9,27.4,29.94,SW,217,0.0,0.0,63,0.00,CLR,,0.00,WeatherDisplay:10.37,2013-02-05 11:30:00,
2013-02-05 06:40:00,39.1,27.2,29.94,SW,217,0.0,0.0,62,0.00,CLR,,0.00,WeatherDisplay:10.37,2013-02-05 11:40:00,
2013-02-05 06:50:00,39.2,27.3,29.95,SW,224,0.0,2.0,62,0.00,CLR,,0.00,WeatherDisplay:10.37,2013-02-05 11:50:00,
2013-02-05 07:00:00,39.3,27.4,29.95,SW,228,0.0,1.0,62,0.00,CLR,,0.00,WeatherDisplay:10.37,2013-02-05 12:00:00,
2013-02-05 07:10:00,39.3,27.4,29.95,SW,227,0.0,1.0,62,0.00,CLR,,0.00,WeatherDisplay:10.37,2013-02-05 12:10:00,
2013-02-05 07:20:00,39.3,27.7,29.94,SW,227,0.0,1.0,63,0.00,CLR,,0.00,WeatherDisplay:10.37,2013-02-05 12:20:00,
2013-02-05 07:30:00,39.2,27.7,29.94,SW,226,0.0,1.0,63,0.00,CLR,,0.00,WeatherDisplay:10.37,2013-02-05 12:30:00,
2013-02-05 07:40:00,38.9,27.4,29.95,SW,227,0.0,0.0,63,0.00,CLR,,0.00,WeatherDisplay:10.37,2013-02-05 12:40:00,
2013-02-05 07:50:00,38.9,27.8,29.96,SW,227,0.0,0.0,64,0.00,CLR,,0.00,WeatherDisplay:10.37,2013-02-05 12:50:00,
2013-02-05 08:00:00,38.9,27.8,29.96,SW,226,0.0,1.0,64,0.00,CLR,,0.00,WeatherDisplay:10.37,2013-02-05 13:00:00,
2013-02-05 08:10:00,38.9,28.1,29.97,SW,225,0.0,1.0,65,0.00,CLR,,0.00,WeatherDisplay:10.37,2013-02-05 13:10:00,
2013-02-05 08:20:00,39.2,28.0,29.97,SW,225,0.0,0.0,64,0.00,CLR,,0.00,WeatherDisplay:10.37,2013-02-05 13:20:00,
2013-02-05 08:30:00,39.8,28.2,29.97,SW,225,0.0,2.0,63,0.00,CLR,,0.00,WeatherDisplay:10.37,2013-02-05 13:30:00,
2013-02-05 08:40:00,40.6,28.6,29.96,SW,223,1.0,3.0,62,0.00,CLR,,0.00,WeatherDisplay:10.37,2013-02-05 13:40:00,
2013-02-05 08:50:00,41.2,28.7,29.97,SW,218,1.0,4.0,61,0.00,CLR,,0.00,WeatherDisplay:10.37,2013-02-05 13:50:00,
2013-02-05 09:00:00,41.2,28.8,29.97,SW,230,1.0,7.0,61,0.00,CLR,,0.00,WeatherDisplay:10.37,2013-02-05 14:00:00,
2013-02-05 09:10:00,41.5,28.7,29.97,SW,228,3.0,7.0,60,0.00,CLR,,0.00,WeatherDisplay:10.37,2013-02-05 14:10:00,
2013-02-05 09:20:00,42.0,29.1,29.97,SW,224,1.0,6.0,60,0.00,CLR,,0.00,WeatherDisplay:10.37,2013-02-05 14:20:00,
2013-02-05 09:30:00,42.6,28.8,29.97,SW,230,2.0,7.0,58,0.00,CLR,,0.00,WeatherDisplay:10.37,2013-02-05 14:30:00,
2013-02-05 09:40:00,43.6,28.9,29.97,SW,235,1.0,9.0,56,0.00,CLR,,0.00,WeatherDisplay:10.37,2013-02-05 14:40:00,
2013-02-05 09:50:00,44.6,29.0,29.96,SW,231,1.0,8.0,54,0.00,CLR,,0.00,WeatherDisplay:10.37,2013-02-05 14:50:00,
2013-02-05 10:00:00,44.8,29.2,29.96,SW,228,2.0,7.0,54,0.00,CLR,,0.00,WeatherDisplay:10.37,2013-02-05 15:00:00,
2013-02-05 10:10:00,45.0,28.9,29.97,WSW,248,1.0,7.0,53,0.00,CLR,,0.00,WeatherDisplay:10.37,2013-02-05 15:10:00,
2013-02-05 10:20:00,45.2,29.1,29.97,SW,235,1.0,6.0,53,0.00,CLR,,0.00,WeatherDisplay:10.37,2013-02-05 15:20:00,
2013-02-05 10:30:00,45.4,28.8,29.97,SW,230,1.0,5.0,52,0.00,CLR,,0.00,WeatherDisplay:10.37,2013-02-05 15:30:00,
2013-02-05 10:40:00,45.7,29.0,29.97,SW,227,0.0,5.0,52,0.00,CLR,,0.00,WeatherDisplay:10.37,2013-02-05 15:40:00,
2013-02-05 10:50:00,45.7,29.1,29.97,SW,222,3.0,6.0,52,0.00,CLR,,0.00,WeatherDisplay:10.37,2013-02-05 15:50:00,
2013-02-05 11:00:00,45.8,28.7,29.97,SW,230,3.0,6.0,51,0.00,CLR,,0.00,WeatherDisplay:10.37,2013-02-05 16:00:00,
2013-02-05 11:10:00,46.7,29.0,29.97,SW,225,1.0,7.0,50,0.00,CLR,,0.00,WeatherDisplay:10.37,2013-02-05 16:10:00,
2013-02-05 11:20:00,46.8,29.1,29.97,SW,217,3.0,6.0,50,0.00,CLR,,0.00,WeatherDisplay:10.37,2013-02-05 16:20:00,
2013-02-05 11:30:00,47.6,29.4,29.97,SW,214,1.0,5.0,49,0.00,CLR,,0.00,WeatherDisplay:10.37,2013-02-05 16:30:00,
2013-02-05 11:40:00,48.1,29.4,29.96,SW,220,1.0,5.0,48,0.00,CLR,,0.00,WeatherDisplay:10.37,2013-02-05 16:40:00,
2013-02-05 11:50:00,49.9,29.9,29.96,SW,214,0.0,4.0,46,0.00,CLR,,0.00,WeatherDisplay:10.37,2013-02-05 16:50:00,
2013-02-05 12:00:00,50.7,29.5,29.96,SSW,213,1.0,4.0,44,0.00,CLR,,0.00,WeatherDisplay:10.37,2013-02-05 17:00:00,
2013-02-05 12:10:00,51.4,29.1,29.95,SW,219,1.0,3.0,42,0.00,CLR,,0.00,WeatherDisplay:10.37,2013-02-05 17:10:00,
2013-02-05 12:20:00,51.4,28.5,29.94,SW,222,1.0,4.0,41,0.00,CLR,,0.00,WeatherDisplay:10.37,2013-02-05 17:20:00,
2013-02-05 12:30:00,52.8,28.5,29.94,SW,234,1.0,5.0,39,0.00,CLR,,0.00,WeatherDisplay:10.37,2013-02-05 17:30:00,
2013-02-05 12:40:00,53.2,27.6,29.93,WSW,245,1.0,5.0,37,0.00,CLR,,0.00,WeatherDisplay:10.37,2013-02-05 17:40:00,
2013-02-05 12:50:00,54.3,27.2,29.93,WSW,251,2.0,5.0,35,0.00,CLR,,0.00,WeatherDisplay:10.37,2013-02-05 17:50:00,
2013-02-05 13:00:00,54.6,27.5,29.93,WSW,242,0.0,7.0,35,0.00,CLR,,0.00,WeatherDisplay:10.37,2013-02-05 18:00:00,
2013-02-05 13:10:00,53.9,28.2,29.92,WSW,247,2.0,4.0,37,0.00,CLR,,0.00,WeatherDisplay:10.37,2013-02-05 18:10:00,
2013-02-05 13:20:00,54.8,28.3,29.92,WSW,247,1.0,5.0,36,0.00,CLR,,0.00,WeatherDisplay:10.37,2013-02-05 18:20:00,
2013-02-05 13:30:00,54.5,28.0,29.92,SW,234,1.0,6.0,36,0.00,CLR,,0.00,WeatherDisplay:10.37,2013-02-05 18:30:00,
2013-02-05 13:40:00,55.5,28.3,29.91,WSW,239,3.0,9.0,35,0.00,CLR,,0.00,WeatherDisplay:10.37,2013-02-05 18:40:00,
2013-02-05 13:50:00,55.7,28.4,29.90,WSW,243,2.0,9.0,35,0.00,CLR,,0.00,WeatherDisplay:10.37,2013-02-05 18:50:00,
2013-02-05 14:00:00,55.9,27.9,29.90,WSW,248,3.0,12.0,34,0.00,CLR,,0.00,WeatherDisplay:10.37,2013-02-05 19:00:00,
2013-02-05 14:10:00,56.6,27.8,29.90,WSW,240,3.0,9.0,33,0.00,CLR,,0.00,WeatherDisplay:10.37,2013-02-05 19:10:00,
2013-02-05 14:20:00,57.2,27.6,29.89,SW,219,6.0,13.0,32,0.00,CLR,,0.00,WeatherDisplay:10.37,2013-02-05 19:20:00,
2013-02-05 14:30:00,57.2,28.4,29.89,SW,233,5.0,13.0,33,0.00,CLR,,0.00,WeatherDisplay:10.37,2013-02-05 19:30:00,
2013-02-05 14:40:00,58.0,29.0,29.89,SW,232,3.0,14.0,33,0.00,CLR,,0.00,WeatherDisplay:10.37,2013-02-05 19:40:00,
2013-02-05 14:50:00,58.1,28.4,29.89,WSW,246,6.0,12.0,32,0.00,CLR,,0.00,WeatherDisplay:10.37,2013-02-05 19:50:00,
2013-02-05 15:00:00,57.7,29.5,29.89,WSW,247,8.0,14.0,34,0.00,CLR,,0.00,WeatherDisplay:10.37,2013-02-05 20:00:00,
2013-02-05 15:10:00,57.7,29.5,29.89,WSW,247,2.0,15.0,34,0.00,CLR,,0.00,WeatherDisplay:10.37,2013-02-05 20:10:00,
2013-02-05 15:20:00,58.3,30.0,29.90,WSW,250,5.0,13.0,34,0.00,CLR,,0.00,WeatherDisplay:10.37,2013-02-05 20:20:00,
2013-02-05 15:30:00,58.5,30.2,29.90,WSW,237,2.0,7.0,34,0.00,CLR,,0.00,WeatherDisplay:10.37,2013-02-05 20:30:00,
2013-02-05 15:40:00,58.3,30.1,29.89,WSW,245,2.0,7.0,34,0.00,CLR,,0.00,WeatherDisplay:10.37,2013-02-05 20:40:00,
2013-02-05 15:50:00,59.0,30.6,29.89,WSW,245,2.0,12.0,34,0.00,CLR,,0.00,WeatherDisplay:10.37,2013-02-05 20:50:00,
2013-02-05 16:00:00,59.0,29.9,29.89,WSW,239,3.0,14.0,33,0.00,CLR,,0.00,WeatherDisplay:10.37,2013-02-05 21:00:00,
2013-02-05 16:10:00,59.0,29.9,29.88,WSW,240,7.0,20.0,33,0.00,CLR,,0.00,WeatherDisplay:10.37,2013-02-05 21:10:00,
2013-02-05 16:20:00,59.5,30.3,29.89,West,265,2.0,12.0,33,0.00,CLR,,0.00,WeatherDisplay:10.37,2013-02-05 21:20:00,
2013-02-05 16:30:00,59.3,30.2,29.89,West,264,3.0,12.0,33,0.00,CLR,,0.00,WeatherDisplay:10.37,2013-02-05 21:30:00,
2013-02-05 16:40:00,59.5,30.3,29.89,West,274,2.0,9.0,33,0.00,CLR,,0.00,WeatherDisplay:10.37,2013-02-05 21:40:00,
2013-02-05 16:50:00,59.2,30.8,29.89,West,263,0.0,9.0,34,0.00,CLR,,0.00,WeatherDisplay:10.37,2013-02-05 21:50:00,
2013-02-05 17:00:00,58.9,31.3,29.89,WSW,251,2.0,12.0,35,0.00,CLR,,0.00,WeatherDisplay:10.37,2013-02-05 22:00:00,
2013-02-05 17:10:00,58.6,31.0,29.89,West,273,1.0,10.0,35,0.00,CLR,,0.00,WeatherDisplay:10.37,2013-02-05 22:10:00,
2013-02-05 17:20:00,58.3,31.4,29.90,West,272,0.0,5.0,36,0.00,CLR,,0.00,WeatherDisplay:10.37,2013-02-05 22:20:00,
2013-02-05 17:30:00,58.1,31.3,29.90,West,271,0.0,0.0,36,0.00,CLR,,0.00,WeatherDisplay:10.37,2013-02-05 22:30:00,
2013-02-05 17:40:00,58.0,31.8,29.89,West,271,0.0,1.0,37,0.00,CLR,,0.00,WeatherDisplay:10.37,2013-02-05 22:40:00,
2013-02-05 17:50:00,57.5,32.1,29.90,West,271,0.0,1.0,38,0.00,CLR,,0.00,WeatherDisplay:10.37,2013-02-05 22:50:00,
2013-02-05 18:00:00,57.0,32.3,29.90,West,273,0.0,0.0,39,0.00,CLR,,0.00,WeatherDisplay:10.37,2013-02-05 23:00:00,
2013-02-05 18:10:00,56.3,32.9,29.91,NW,311,0.0,1.0,41,0.00,CLR,,0.00,WeatherDisplay:10.37,2013-02-05 23:10:00,
2013-02-05 18:20:00,55.4,32.0,29.92,NW,325,0.0,1.0,41,0.00,CLR,,0.00,WeatherDisplay:10.37,2013-02-05 23:20:00,
2013-02-05 18:30:00,54.5,32.4,29.92,NW,326,0.0,0.0,43,0.00,CLR,,0.00,WeatherDisplay:10.37,2013-02-05 23:30:00,
2013-02-05 18:40:00,53.7,32.3,29.92,NNW,327,0.0,0.0,44,0.00,CLR,,0.00,WeatherDisplay:10.37,2013-02-05 23:40:00,
2013-02-05 18:50:00,53.0,32.2,29.93,NNW,327,0.0,0.0,45,0.00,CLR,,0.00,WeatherDisplay:10.37,2013-02-05 23:50:00,
2013-02-05 19:00:00,52.3,32.1,29.93,NNW,327,0.0,0.0,46,0.00,CLR,,0.00,WeatherDisplay:10.37,2013-02-06 00:00:00,
2013-02-05 19:10:00,51.6,32.0,29.93,NNW,327,0.0,0.0,47,0.00,CLR,,0.00,WeatherDisplay:10.37,2013-02-06 00:10:00,
2013-02-05 19:20:00,51.1,31.5,29.94,NNW,327,0.0,0.0,47,0.00,CLR,,0.00,WeatherDisplay:10.37,2013-02-06 00:20:00,
2013-02-05 19:30:00,50.6,31.6,29.94,NNW,327,0.0,0.0,48,0.00,CLR,,0.00,WeatherDisplay:10.37,2013-02-06 00:30:00,
2013-02-05 19:40:00,50.2,31.2,29.94,NNW,327,0.0,0.0,48,0.00,CLR,,0.00,WeatherDisplay:10.37,2013-02-06 00:40:00,
2013-02-05 19:50:00,49.7,31.3,29.95,NNW,327,0.0,0.0,49,0.00,CLR,,0.00,WeatherDisplay:10.37,2013-02-06 00:50:00,
2013-02-05 20:00:00,49.4,31.0,29.95,NNW,327,0.0,0.0,49,0.00,CLR,,0.00,WeatherDisplay:10.37,2013-02-06 01:00:00,
2013-02-05 20:10:00,48.9,30.6,29.95,NNW,327,0.0,0.0,49,0.00,CLR,,0.00,WeatherDisplay:10.37,2013-02-06 01:10:00,
2013-02-05 20:20:00,48.6,30.8,29.95,NNW,327,0.0,0.0,50,0.00,CLR,,0.00,WeatherDisplay:10.37,2013-02-06 01:20:00,
2013-02-05 20:30:00,48.2,30.9,29.95,NNW,327,0.0,0.0,51,0.00,CLR,,0.00,WeatherDisplay:10.37,2013-02-06 01:30:00,
2013-02-05 20:40:00,47.9,30.6,29.95,NNW,327,0.0,0.0,51,0.00,CLR,,0.00,WeatherDisplay:10.37,2013-02-06 01:40:00,
2013-02-05 20:50:00,47.5,30.8,29.95,NNW,327,0.0,0.0,52,0.00,CLR,,0.00,WeatherDisplay:10.37,2013-02-06 01:50:00,
2013-02-05 21:00:00,47.1,30.8,29.95,NNW,327,0.0,0.0,53,0.00,CLR,,0.00,WeatherDisplay:10.37,2013-02-06 02:00:00,
2013-02-05 21:10:00,46.8,31.1,29.96,NNW,327,0.0,0.0,54,0.00,CLR,,0.00,WeatherDisplay:10.37,2013-02-06 02:10:00,
2013-02-05 21:20:00,46.7,30.5,29.96,NNW,327,0.0,0.0,53,0.00,CLR,,0.00,WeatherDisplay:10.37,2013-02-06 02:20:00,
2013-02-05 21:30:00,46.5,31.2,29.96,NNW,327,0.0,0.0,55,0.00,CLR,,0.00,WeatherDisplay:10.37,2013-02-06 02:30:00,
2013-02-05 21:40:00,46.5,30.7,29.96,NNW,327,0.0,0.0,54,0.00,CLR,,0.00,WeatherDisplay:10.37,2013-02-06 02:40:00,
2013-02-05 21:50:00,46.4,31.1,29.97,NNW,327,0.0,0.0,55,0.00,CLR,,0.00,WeatherDisplay:10.37,2013-02-06 02:50:00,
2013-02-05 22:00:00,46.4,31.1,29.97,NNW,327,0.0,0.0,55,0.00,CLR,,0.00,WeatherDisplay:10.37,2013-02-06 03:00:00,
2013-02-05 22:10:00,46.4,31.1,29.97,NNW,327,0.0,0.0,55,0.00,CLR,,0.00,WeatherDisplay:10.37,2013-02-06 03:10:00,
2013-02-05 22:20:00,46.4,31.1,29.96,NNW,327,0.0,0.0,55,0.00,CLR,,0.00,WeatherDisplay:10.37,2013-02-06 03:20:00,
2013-02-05 22:30:00,46.1,30.8,29.96,NNW,327,0.0,0.0,55,0.00,CLR,,0.00,WeatherDisplay:10.37,2013-02-06 03:30:00,
2013-02-05 22:40:00,45.7,31.3,29.96,NNW,327,0.0,0.0,57,0.00,CLR,,0.00,WeatherDisplay:10.37,2013-02-06 03:40:00,
2013-02-05 22:50:00,44.9,31.0,29.97,NNW,327,0.0,0.0,58,0.00,CLR,,0.00,WeatherDisplay:10.37,2013-02-06 03:50:00,
2013-02-05 23:00:00,44.5,31.1,29.97,NNW,327,0.0,0.0,59,0.00,CLR,,0.00,WeatherDisplay:10.37,2013-02-06 04:00:00,
2013-02-05 23:10:00,43.9,31.3,29.97,NNW,327,0.0,0.0,61,0.00,CLR,,0.00,WeatherDisplay:10.37,2013-02-06 04:10:00,
2013-02-05 23:20:00,43.5,31.3,29.96,NNW,327,0.0,0.0,62,0.00,CLR,,0.00,WeatherDisplay:10.37,2013-02-06 04:20:00,
2013-02-05 23:30:00,43.2,31.1,29.96,NNW,327,0.0,0.0,62,0.00,CLR,,0.00,WeatherDisplay:10.37,2013-02-06 04:30:00,
2013-02-05 23:40:00,42.6,30.9,29.98,NNW,327,0.0,0.0,63,0.00,CLR,,0.00,WeatherDisplay:10.37,2013-02-06 04:40:00,
2013-02-05 23:50:00,42.2,31.3,29.98,NNW,327,0.0,0.0,65,0.00,CLR,,0.00,WeatherDisplay:10.37,2013-02-06 04:50:00,